Location: G�ndlingen
(48.0142°N, 7.6396°E)
Time: 01:34:28
(UTC+00:00)

Cosmos 1844 Rocket - Visible Passes

Search period start: 24 October 2020 00:00
Search period end: 03 November 2020 00:00
Orbit: 823 x 846 km, 71.0° (Epoch: 23 October)

Date Brightness Start Highest point End Pass type
(mag) Time Alt. Az. Time Alt. Az. Time Alt. Az.
24 Oct 5.0 19:54:40 10° N 19:55:55 15° N 19:55:55 15° N visible
25 Oct 4.9 19:37:29 10° N 19:39:02 16° N 19:39:02 16° N visible
26 Oct 4.7 19:20:20 10° N 19:22:10 16° N 19:22:10 16° N visible
26 Oct 5.5 21:03:33 10° NNW 21:03:49 11° NNW 21:03:49 11° NNW visible
27 Oct 4.6 19:03:11 10° N 19:05:18 17° NNE 19:05:18 17° NNE visible
27 Oct 5.4 20:46:20 10° NNW 20:46:58 13° NNW 20:46:58 13° NNW visible
28 Oct 4.5 18:46:02 10° N 18:48:28 17° NNE 18:48:28 17° NNE visible
28 Oct 5.2 20:29:06 10° NNW 20:30:08 16° NNW 20:30:08 16° NNW visible
29 Oct 4.5 18:28:53 10° N 18:31:40 17° NNE 18:31:40 17° NNE visible
29 Oct 4.9 20:11:53 10° NNW 20:13:20 18° NNW 20:13:20 18° NNW visible
30 Oct 4.4 18:11:46 10° N 18:14:53 16° NNE 18:14:53 16° NNE visible
30 Oct 4.7 19:54:40 10° NNW 19:56:33 21° NNW 19:56:33 21° NNW visible
31 Oct 4.4 17:54:37 10° N 17:57:59 16° NE 17:58:09 16° NE visible
31 Oct 4.4 19:37:28 10° NNW 19:39:48 25° NNW 19:39:48 25° NNW visible
01 Nov 4.4 17:37:30 10° N 17:40:39 15° NE 17:41:27 14° NE visible
01 Nov 4.1 19:20:15 10° NNW 19:23:06 29° N 19:23:06 29° N visible
01 Nov 5.7 21:04:46 10° NW 21:04:46 10° NW 21:04:46 10° NW visible
02 Nov 4.4 17:20:25 10° N 17:23:20 14° NNE 17:24:46 13° NE visible
02 Nov 3.8 19:03:03 10° NNW 19:06:26 34° N 19:06:26 34° N visible
02 Nov 5.4 20:47:26 10° NW 20:48:06 13° NW 20:48:06 13° NW visible
